STARLINK-32459, 61715

Orbit data source: Space-Track

STARLINK-32459, 61715 is a payload satellite owned by SpaceX/Seattle (US) in LEO that was launched on Wed, 30 Oct 2024 UTC via an FALCON 9 launch vehicle from the Air Force Eastern Test Range (AFETR). Payloads include a variety of satellites, spacecraft, and rockets equipped with specific instruments for various scientific and technological missions. These include communications satellites like Starlink; space stations such as the ISS; scientific satellites like the Hubble; Earth observation satellites from companies like Planet Labs, Umbra, and HawkEye 360; GPS; miniature CubeSats for education and research; and military/defense satellites.

Loading next visibility...
STARLINK-32459 details
Identifier
61715, 2024-196J
Orbit
LEO
Last TLE update21 hours ago
Origin
Flag of USSpaceX/Seattle (US)
ManufacturerSpaceX/Seattle
MissionOperational spacecraft
Bus & MotorSTARLINK V2M, Unknown motor
Mass730 kg wet, ~700 kg dry
Launch date (UTC)
2024-10-30 (1 month ago)
Launch vehicle
FALCON 9
Launch site
Air Force Eastern Test Range (AFETR)
Object type
Payload
Rocket body
Debris
Shape & HBRUnknown
Radar Cross SectionLarge (>1 m²)

Expand to show TLE details & history

TLE from 21 hours ago
0 STARLINK-32459
1 61715U 24196J   24346.46469761  .00001638  00000-0  50944-4 0  9998
2 61715  53.1614  49.5204 0000973  97.7496 262.3619 15.39602356  7722
Epoch: 2024-12-11T11:09Z
Definitive object data (Epoch: 2024-12-11T11:09:09.873Z)
Latitude-0.00005°
Longitude161.57022°
Altitude448.276 km
Speed7.644 km/s
True Right ascension03h 18m 04s
True Declination0° 00' 00"
Sunlit
Object was in full shadow at TLE epoch
Visualization TLE readout
Latitude-47.10361°
Longitude30.68795°
Altitude463.904 km
Speed7.634 km/s
Apparent Right ascension18h 44m 26s
Apparent Declination-43° 28' 37"
Sunlit
Object is in daylight
Visualization observer readout
Local Sidereal Time06:53:51
Azimuth154.509° SSE
Elevation-86.029°
Doppler factor1
Orbital elements
Apogee altitude448.206 km
Perigee altitude446.877 km
Semi-major axis6,825.679 km
Eccentricity0.0000973
Inclination53.1614°
RAAN49.5204°
Arg. of periapsis97.7496°
True anomaly262.35085°
Mean anomaly262.3619°
Eccentric anomaly262.35637°
Mean motion3.84879 °/min
BSTAR0.000050944
Orbital period93.54 mins
Loading maneuver chart data...
Loading historical data...
Loading historical data...
Loading historical data...
Loading historical data...
Loading historical data...
Loading historical data...
Loading historical data...

STARLINK-32459 Visibility forecast

Observer location: undefined°, undefined

Span
Click to sort rows by Start time (UTC) header in descending order
Start Az.
Max El. time (UTC)
Max El. Az.
Max El.
End time (UTC)
End Az.
5 mins2024-12-12 14:10:11.285Z294.173° NW2024-12-12 14:12:11.285Z186.253° SSW39.543°2024-12-12 14:15:11.285Z142.609° SSE
5 mins2024-12-13 06:59:11.285Z244.253° WSW2024-12-13 07:01:11.285Z8.711° NNE41.272°2024-12-13 07:04:11.285Z45.909° ENE
|